This is the latest recevied weather packets stored in our database for station/object OK2ILA-3. If no packets are shown the sender has not sent any weather packets the latest 10 day(s).
| Time | Temp. | Humidity | Pressure | Rain* | Wind** | Luminosity | Snow |
|---|---|---|---|---|---|---|---|
| 1777796463 | 20.56° C | 51% | 1104 hPa | 0 mm | - | - | - |
| 1777795861 | 19.44° C | 3% | 17.6 hPa | 0 mm | - | - | - |
| 1777794647 | 19.44° C | 51% | 4352 hPa | 0 mm | - | - | - |
| 1777793440 | 18.33° C | 51% | 4096.1 hPa | 0 mm | - | - | - |
| 1777792835 | 17.78° C | 3% | 5495.4 hPa | 0 mm | - | - | - |
| 1777792230 | 17.78° C | 55% | 5495.4 hPa | 0 mm | - | - | - |
| 1777791627 | 17.22° C | 95% | 5495.4 hPa | 0 mm | - | - | - |
| 1777791020 | 17.22° C | 6% | 206.4 hPa | 0 mm | - | - | - |
| 1777790416 | 16.11° C | 79% | 206.4 hPa | 0 mm | - | - | - |
| 1777789813 | 16.11° C | 50% | 4096.4 hPa | 0 mm | - | - | - |
| 1777789207 | 16.11° C | 3% | 4096.4 hPa | 0 mm | - | - | - |
| 1777788604 | 15° C | 54% | 4096.4 hPa | 0 mm | - | - | - |
| 1777787998 | 13.89° C | 51% | 4096.4 hPa | 0 mm | - | - | - |
| 1777787392 | 13.33° C | 12% | 4096.4 hPa | 0 mm | - | - | - |
| 1777785575 | 12.22° C | 12% | 4352 hPa | 0 mm | - | - | - |
| 1777784973 | 12.22° C | 26% | 4352 hPa | 0 mm | - | - | - |
| 1777783764 | 11.67° C | 51% | 410.6 hPa | 0 mm | - | - | - |
| 1777783161 | 11.11° C | 95% | - | 0 mm | - | - | - |
| 1777782114 | 10.56° C | 97% | 0 hPa | 0 mm | - | - | - |
| 1777781507 | 10.56° C | 12% | 0 hPa | 0 mm | - | - | - |
| 1777780899 | 10° C | 95% | 0 hPa | 0 mm | - | - | - |
| 1777780292 | 10° C | 35% | 0 hPa | 0 mm | - | - | - |
| 1777779690 | 10° C | 5% | 0 hPa | 0 mm | - | - | - |
| 1777779086 | 9.44° C | 100% | 4096 hPa | 0 mm | - | - | - |
| 1777778479 | 9.44° C | 100% | 4096 hPa | 0 mm | - | - | - |
* Rain latest 24 hours (hover to see other rain measurements)
** Current wind speed in m/s (hover to see current wind gust speed)